Regional Weather Roundup
Issued by NWS

Home | Current Version | Previous Version | Graphics & Text | Print | Product List | Glossary On
Versions: 1 2 3 4 5 6 7 8 9 10 11 12 13 14 15 16 17 18 19 20 21 22 23 24 25 26 27 28 29 30 31 32 33 34 35 36 37 38 39 40 41 42 43 44 45 46 47 48 49 50
000
ASUS43 KOAX 270702
RWRNE

WEATHER ROUNDUP FOR NEBRASKA
NATIONAL WEATHER SERVICE OMAHA NE
200 AM CDT MON MAR 27 2017

NOTES: SATELLITE DATA IS BEING USED TO AUGMENT CLOUD COVER ABOVE
       12000 FEET.
       "FAIR" INDICATES FEW OR NO CLOUDS BELOW 12,000 FEET WITH NO
       SIGNIFICANT WEATHER AND/OR OBSTRUCTIONS TO VISIBILITY.

  * THESE STATIONS DO NOT REPORT WEATHER SUCH AS RAIN...SNOW OR FOG.

NEZ001>004-019>022-054>056-270800-
NEBRASKA PANHANDLE

CITY           SKY/WX    TMP DP  RH WIND       PRES   REMARKS
SCOTTSBLUFF    CLEAR     30  26  85 N6        29.95F WCI  24
ALLIANCE       CLOUDY    30  29  96 W6        29.93F WCI  24
CHADRON        CLOUDY    36  33  89 CALM      29.94F
KIMBALL        CLOUDY    31  31 100 W5        29.96F WCI  27
SIDNEY         CLEAR     30  29  96 NW9       29.95F WCI  22
$$

NEZ057>060-069>072-079>082-270800-
SOUTHWEST NEBRASKA

CITY           SKY/WX    TMP DP  RH WIND       PRES   REMARKS
NORTH PLATTE   PTCLDY    42  39  89 E6        29.92F
IMPERIAL       CLEAR     37  35  92 SW3       29.93S
LEXINGTON      CLOUDY    43  41  94 NE5       29.93F
MCCOOK         CLEAR     37  37 100 NW6       29.92F WCI  32
OGALLALA       CLEAR     39  37  90 CALM      29.92S
$$

NEZ005>010-023>029-035>040-094-270800-
NORTH CENTRAL NEBRASKA

CITY           SKY/WX    TMP DP  RH WIND       PRES   REMARKS
VALENTINE      CLEAR     32  30  92 CALM      29.93F
AINSWORTH      FOG       35  35 100 CALM      29.94F VSB 1/2
BROKEN BOW     CLOUDY    40  39  97 CALM      29.93F
O`NEILL        CLOUDY    43  41  93 CALM      29.97S
ORD            CLOUDY    44  41  89 NW3       29.94F
THEDFORD       CLOUDY    41  41  97 E5        29.93F FOG
$$

NEZ041-046>049-061>064-073>077-083>087-270800-
SOUTH CENTRAL NEBRASKA

CITY           SKY/WX    TMP DP  RH WIND       PRES   REMARKS
GRAND ISLAND   CLOUDY    44  44 100 N6        29.94R FOG
AURORA         CLOUDY    44  44  99 N7        29.92F FOG
HASTINGS       CLOUDY    45  43  93 N7        29.94R FOG
HEBRON         CLOUDY    44  43  95 N3        29.92R
HOLDREGE       CLOUDY    43  41  95 N6        29.93S
KEARNEY *      CLOUDY    45  39  81 CALM      29.95S
YORK           CLOUDY    45  45 100 NE8       29.92F FOG
$$

NEZ011>018-030>034-042>045-270800-
NORTHEAST NEBRASKA

CITY           SKY/WX    TMP DP  RH WIND       PRES   REMARKS
NORFOLK        CLOUDY    42  40  92 N3        29.94S
ALBION         CLOUDY    45  42  89 N5        29.96R
BLAIR          CLOUDY    45  42  91 N7        29.91F
FREMONT        CLOUDY    44  43  97 NW6       29.93F
TEKAMAH        CLOUDY    45  41  86 N7        29.94S
WAYNE          CLOUDY    42  42  99 CALM      29.95R
$$

NEZ050>053-065>068-078-088>093-270800-
SOUTHEAST NEBRASKA

CITY           SKY/WX    TMP DP  RH WIND       PRES   REMARKS
LINCOLN        CLOUDY    45  43  93 N8        29.93F
OMAHA EPPLEY   CLOUDY    46  41  82 N6        29.91F
BEATRICE       CLOUDY    46  44  93 NE7       29.90R
FALLS CITY     CLOUDY    47  44  90 E3        29.91F
NEBRASKA CITY  CLOUDY    45  44  97 E5        29.91R
PLATTSMOUTH    CLOUDY    46  41  85 N3        29.91S
$$

NEZ044-045-051>053-067-270800-
OMAHA AREA

CITY           SKY/WX    TMP DP  RH WIND       PRES   REMARKS
OMAHA EPPLEY   CLOUDY    46  41  82 N6        29.91F
BLAIR          CLOUDY    45  42  91 N7        29.91F
FREMONT        CLOUDY    44  43  97 NW6       29.93F
MILLARD        CLOUDY    48  43  82 N5        29.92F
OFFUTT AFB     CLOUDY    47  43  86 N6        29.91F
PLATTSMOUTH    CLOUDY    46  41  85 N3        29.91S
WAHOO          CLOUDY    44  42  95 N8        29.92F FOG
$$




USA.gov is the U.S. government's official web portal to all federal, state and local government web resources and services.